Weather History for KOPF - June, 2013

Change the Weather History Date:

Sunday, June 16, 2013

  Actual Average (KMIA) Record (KMIA)
Temperature  
Mean Temperature 84 °F 83 °F  
Max Temperature 91 °F 90 °F 94 °F (2011)
Min Temperature 78 °F 76 °F 66 °F (1938)
Degree Days  
Heating Degree Days 0 0  
Month to date heating degree days 0  
Since 1 June heating degree days 0  
Since 1 July heating degree days 128  
Cooling Degree Days 19 18  
Month to date cooling degree days 279  
Year to date cooling degree days 1635  
Since 1 June cooling degree days 279  
Growing Degree Days 34 (Base 50)    
Moisture  
Dew Point 73 °F    
Average Humidity 73    
Maximum Humidity 90    
Minimum Humidity 55    
Precipitation  
Precipitation 0.00 in 0.34 in 2.89 in (1984)
Month to date precipitation 4.98  
Year to date precipitation 20.33  
Snow  
Snow 0.00 in - - ()
Month to date snowfall  
Since 1 June snowfall  
Since 1 July snowfall  
Snow Depth -    
Sea Level Pressure  
Sea Level Pressure 30.06 in    
Wind  
Wind Speed 4 mph (East)    
Max Wind Speed 12 mph    
Max Gust Speed 21 mph    
Visibility 10 miles    
Events      
T = Trace of Precipitation, MM = Missing Value Source: NWS Daily Summary

Daily Weather History Graph

Daily Weather History Graph

Search for Another Location

Airport or City:

Trip Planner

Search our weather history database for the weather conditions in past years. The results will help you decide how hot, cold, wet, or windy it might be!

Date:

Astronomy

Jun. 16, 2013 Rise Set
Actual Time 6:29 AM EDT 8:14 PM EDT
Civil Twilight 6:03 AM EDT 8:40 PM EDT
Nautical Twilight 5:31 AM EDT 9:12 PM EDT
Astronomical Twilight 4:58 AM EDT 9:44 PM EDT
Moon 1:23 PM EDT (6/16) 12:55 AM EDT (6/16)
Length of Visible Light 14h 37m
Length of Day
13h 45m
Waxing Crescent, 49% of the Moon is Illuminated
Jun 16
Waxing Crescent
Jun 16
First Quarter
Jun 23
Full
Jun 30
Last Quarter
Jul 8
New

Hourly Weather History & Observations

Time (EDT) Temp. Heat Index Dew Point Humidity Pressure Visibility Wind Dir Wind Speed Gust Speed Precip Events Conditions
12:53 AM 81.0 °F 86.2 °F 73.9 °F 79% 30.07 in 10.0 mi Calm Calm - N/A   Clear
1:53 AM 80.1 °F 85.1 °F 75.0 °F 85% 30.06 in 10.0 mi East 4.6 mph - N/A   Clear
2:53 AM 79.0 °F - 75.0 °F 88% 30.05 in 10.0 mi Calm Calm - N/A   Scattered Clouds
3:03 AM 78.8 °F - 75.2 °F 89% 30.05 in 10.0 mi Calm Calm - N/A   Mostly Cloudy
3:31 AM 78.8 °F - 75.2 °F 89% 30.04 in 10.0 mi Calm Calm - N/A   Partly Cloudy
3:53 AM 79.0 °F - 75.0 °F 88% 30.04 in 10.0 mi Calm Calm - N/A   Clear
4:53 AM 78.1 °F - 75.0 °F 90% 30.03 in 10.0 mi ENE 4.6 mph - N/A   Clear
5:53 AM 78.1 °F - 73.9 °F 87% 30.04 in 10.0 mi NNE 4.6 mph - N/A   Clear
6:53 AM 78.1 °F - 73.9 °F 87% 30.06 in 10.0 mi Calm Calm - N/A   Clear
7:53 AM 81.0 °F 86.7 °F 75.0 °F 82% 30.07 in 10.0 mi NE 3.5 mph - N/A   Clear
8:53 AM 84.0 °F 91.2 °F 73.9 °F 72% 30.08 in 10.0 mi East 6.9 mph - N/A   Clear
9:53 AM 86.0 °F 93.0 °F 73.0 °F 65% 30.09 in 10.0 mi East 6.9 mph - N/A   Partly Cloudy
10:53 AM 88.0 °F 95.6 °F 73.0 °F 61% 30.08 in 10.0 mi Variable 5.8 mph - N/A   Partly Cloudy
11:53 AM 90.0 °F 96.9 °F 72.0 °F 55% 30.08 in 10.0 mi East 6.9 mph - N/A   Partly Cloudy
12:53 PM 89.1 °F 96.0 °F 72.0 °F 57% 30.08 in 10.0 mi ENE 9.2 mph - N/A   Scattered Clouds
1:53 PM 86.0 °F 93.8 °F 73.9 °F 67% 30.08 in 10.0 mi ENE 11.5 mph - N/A   Mostly Cloudy
2:53 PM 89.1 °F 96.0 °F 72.0 °F 57% 30.06 in 10.0 mi East 10.4 mph - 0.00 in   Scattered Clouds
3:53 PM 90.0 °F 96.9 °F 72.0 °F 55% 30.06 in 10.0 mi SE 9.2 mph 20.7 mph N/A   Partly Cloudy
4:53 PM 88.0 °F 93.8 °F 71.1 °F 57% 30.04 in 10.0 mi SE 10.4 mph - N/A   Mostly Cloudy
5:53 PM 88.0 °F 96.5 °F 73.9 °F 63% 30.02 in 10.0 mi ESE 11.5 mph - N/A   Partly Cloudy
6:53 PM 86.0 °F 93.0 °F 73.0 °F 65% 30.04 in 10.0 mi ESE 9.2 mph - N/A   Clear
7:53 PM 84.0 °F 90.2 °F 73.0 °F 69% 30.05 in 10.0 mi ESE 9.2 mph - N/A   Clear
8:53 PM 82.9 °F 88.0 °F 72.0 °F 69% 30.07 in 10.0 mi ESE 10.4 mph - N/A   Clear
9:53 PM 82.9 °F 88.0 °F 72.0 °F 69% 30.09 in 10.0 mi SE 9.2 mph - N/A   Clear
10:53 PM 82.0 °F 87.4 °F 73.0 °F 74% 30.09 in 10.0 mi SE 9.2 mph - N/A   Clear
11:53 PM 82.0 °F 87.9 °F 73.9 °F 76% 30.09 in 10.0 mi ESE 8.1 mph - N/A   Clear